Terug naar catalogus

METEOR 1-17 DEB

ActiefPO
NORAD 57542·DEBRIS·🇷🇺 Russia

Gelanceerd Apr 24, 1974 vanaf Plesetsk Cosmodrome

Loading…

Volgende Passages (komende 24 uur)

TLE

VersSource: Space-Track

Epoch: Sep 13, 2026, 20:21 UTC

1 57542U 74025H   26256.84839320  .00002527  00000-0  11353-2 0  9990
2 57542  81.2069 197.2309 0011571  73.6896 286.5553 14.22126964170184

Volg METEOR 1-17 DEB in realtime met AllMySat

Download on the App Store